Weather History for KEYW - May, 2012

Change the Weather History Date:

Wednesday, May 23, 2012

  Actual Average Record
Temperature  
Mean Temperature 81 °F 81 °F  
Max Temperature 86 °F 86 °F 92 °F (1873)
Min Temperature 76 °F 77 °F 69 °F (1940)
Degree Days  
Heating Degree Days 0 0  
Month to date heating degree days 0 0  
Since 1 July heating degree days 28 73  
Cooling Degree Days 16 16  
Month to date cooling degree days 347 342  
Year to date cooling degree days 1551 1296  
Growing Degree Days 30 (Base 50)    
Moisture  
Dew Point 72 °F    
Average Humidity 70    
Maximum Humidity 79    
Minimum Humidity 61    
Precipitation  
Precipitation T in 0.13 in 1.26 in (1946)
Month to date precipitation 4.02 1.92  
Year to date precipitation 16.34 9.55  
Snow  
Snow 0.00 in - - ()
Month to date snowfall 0.0  
Since 1 July snowfall 0.0  
Snow Depth 0.00 in    
Sea Level Pressure  
Sea Level Pressure 29.87 in    
Wind  
Wind Speed 9 mph (ESE)    
Max Wind Speed 17 mph    
Max Gust Speed 21 mph    
Visibility 10 miles    
Events      
T = Trace of Precipitation, MM = Missing Value Source: NWS Daily Summary

Daily Weather History Graph

Daily Weather History Graph

Search for Another Location

Airport or City:

Trip Planner

Search our weather history database for the weather conditions in past years. The results will help you decide how hot, cold, wet, or windy it might be!

Date:

Astronomy

May. 23, 2012 Rise Set
Actual Time 6:40 AM EDT 8:07 PM EDT
Civil Twilight 6:15 AM EDT 8:32 PM EDT
Nautical Twilight 5:45 AM EDT 9:02 PM EDT
Astronomical Twilight 5:14 AM EDT 9:33 PM EDT
Moon 8:43 AM EDT (5/23) 10:29 PM EDT (5/23)
Length of Visible Light 14h 17m
Length of Day
13h 27m
Waxing Crescent, 6% of the Moon is Illuminated
May 23
Waxing Crescent
May 28
First Quarter
Jun 4
Full
Jun 11
Last Quarter
Jun 19
New

Hourly Weather History & Observations

Time (EDT) Temp. Heat Index Dew Point Humidity Pressure Visibility Wind Dir Wind Speed Gust Speed Precip Events Conditions
12:05 AM 78.8 °F - 71.6 °F 78% 29.93 in 10.0 mi SE 15.0 mph - 0.00 in   Mostly Cloudy
12:35 AM 78.8 °F - 71.6 °F 78% 29.92 in 10.0 mi SE 13.8 mph - 0.00 in   Mostly Cloudy
12:53 AM 79.0 °F - 71.1 °F 77% 29.92 in 10.0 mi ESE 15.0 mph - 0.00 in   Mostly Cloudy
1:53 AM 78.1 °F - 72.0 °F 81% 29.90 in 10.0 mi SE 11.5 mph - N/A   Scattered Clouds
2:53 AM 78.1 °F - 72.0 °F 81% 29.89 in 10.0 mi SE 9.2 mph - N/A   Mostly Cloudy
3:18 AM 78.8 °F - 71.6 °F 78% 29.88 in 10.0 mi SE 8.1 mph - N/A   Scattered Clouds
3:36 AM 78.8 °F - 71.6 °F 78% 29.88 in 10.0 mi SSE 10.4 mph - N/A   Mostly Cloudy
3:53 AM 78.8 °F - 71.6 °F 78% 29.87 in 10.0 mi SE 8.1 mph - N/A   Scattered Clouds
4:53 AM 78.1 °F - 71.1 °F 79% 29.86 in 10.0 mi SE 8.1 mph - N/A   Scattered Clouds
5:23 AM 78.8 °F - 71.6 °F 78% 29.86 in 10.0 mi SE 6.9 mph - N/A   Mostly Cloudy
5:34 AM 78.8 °F - 71.6 °F 78% 29.86 in 10.0 mi SE 4.6 mph - N/A   Scattered Clouds
5:45 AM 78.8 °F - 71.6 °F 78% 29.86 in 10.0 mi SSE 5.8 mph - N/A   Mostly Cloudy
5:53 AM 79.0 °F - 71.1 °F 77% 29.87 in 10.0 mi SE 3.5 mph - N/A   Partly Cloudy
6:53 AM 77.0 °F - 70.0 °F 79% 29.87 in 10.0 mi Calm Calm - N/A   Clear
7:53 AM 80.1 °F 83.8 °F 72.0 °F 76% 29.88 in 10.0 mi NNE 3.5 mph - N/A   Clear
8:53 AM 82.0 °F 86.3 °F 71.1 °F 69% 29.90 in 10.0 mi ENE 3.5 mph - N/A   Partly Cloudy
9:07 AM 82.4 °F 87.2 °F 71.6 °F 70% 29.90 in 10.0 mi NE 4.6 mph - N/A   Mostly Cloudy
9:15 AM 82.4 °F 87.2 °F 71.6 °F 70% 29.90 in 10.0 mi Calm Calm - N/A   Scattered Clouds
9:53 AM 84.0 °F 88.4 °F 70.0 °F 63% 29.91 in 10.0 mi Variable 5.8 mph - N/A   Mostly Cloudy
10:53 AM 84.0 °F 87.8 °F 69.1 °F 61% 29.90 in 10.0 mi NE 6.9 mph - N/A   Clear
11:53 AM 81.0 °F 86.2 °F 73.9 °F 79% 29.89 in 10.0 mi ENE 8.1 mph - N/A   Mostly Cloudy
12:51 PM 84.2 °F 90.9 °F 73.4 °F 70% 29.88 in 10.0 mi NNE 9.2 mph - N/A   Mostly Cloudy
12:53 PM 84.9 °F 91.4 °F 73.0 °F 67% 29.88 in 10.0 mi NNE 9.2 mph - N/A   Mostly Cloudy
1:26 PM 84.2 °F 90.9 °F 73.4 °F 70% 29.88 in 10.0 mi NNE 10.4 mph - N/A   Mostly Cloudy
1:53 PM 84.9 °F 90.7 °F 72.0 °F 65% 29.88 in 10.0 mi NE 8.1 mph - N/A   Mostly Cloudy
2:10 PM 82.4 °F 87.2 °F 71.6 °F 70% 29.88 in 10.0 mi ENE 6.9 mph - N/A   Overcast
2:53 PM 82.0 °F 87.4 °F 73.0 °F 74% 29.87 in 10.0 mi ESE 8.1 mph - 0.00 in   Overcast
3:53 PM 82.9 °F 88.8 °F 73.0 °F 72% 29.85 in 10.0 mi ESE 11.5 mph - N/A   Mostly Cloudy
4:24 PM 82.4 °F 88.2 °F 73.4 °F 74% 29.85 in 10.0 mi East 11.5 mph - N/A   Overcast
4:53 PM 82.9 °F 88.0 °F 72.0 °F 69% 29.84 in 10.0 mi ESE 10.4 mph - N/A   Scattered Clouds
5:53 PM 82.9 °F 88.0 °F 72.0 °F 69% 29.83 in 10.0 mi SE 11.5 mph - N/A   Mostly Cloudy
6:53 PM 80.1 °F 84.5 °F 73.9 °F 81% 29.83 in 10.0 mi SE 11.5 mph - 0.00 in   Overcast
7:53 PM 80.1 °F 84.2 °F 73.0 °F 79% 29.84 in 10.0 mi ESE 11.5 mph - N/A   Overcast
8:53 PM 80.1 °F 84.2 °F 73.0 °F 79% 29.86 in 10.0 mi ESE 12.7 mph - N/A   Mostly Cloudy
9:11 PM 80.6 °F 84.6 °F 71.6 °F 74% 29.85 in 10.0 mi ESE 10.4 mph - N/A   Mostly Cloudy
9:53 PM 80.1 °F 83.8 °F 72.0 °F 76% 29.86 in 10.0 mi SE 10.4 mph - N/A   Clear
10:53 PM 79.0 °F - 72.0 °F 79% 29.86 in 10.0 mi East 6.9 mph - N/A   Clear
11:53 PM 80.1 °F 83.6 °F 71.1 °F 74% 29.87 in 10.0 mi ESE 12.7 mph - N/A   Mostly Cloudy